Theta_e
311 311 311 312 311 311 313 315 314 314 313 313 314 314 314 315 311 304 298 303 304 310 306 296 294 293 291 288 290 289 279 277 279 281 281 284 283 286 288 286 286 289 290 295 296
312 311 311 311 311 311 313 313 313 313 312 313 313 313 313 314 302 297 308 310 310 308 295 292 289 290 285 285 286 283 277 277 283 281 280 283 283 284 284 283 284 287 290 292 295
311 311 311 311 311 311 312 313 312 311 312 312 313 313 313 309 293 294 310 311 309 303 296 293 291 289 283 284 284 282 278 282 282 283 285 284 283 284 282 281 284 283 287 290 292
311 310 310 311 311 312 312 312 311 311 312 312 312 313 312 299 280 296 310 309 307 299 295 292 289 284 281 281 285 279 283 284 284 286 286 284 286 284 284 285 287 287 289 290 291
310 310 310 312 311 311 311 311 312 312 312 312 312 312 302 290 290 300 307 303 296 296 292 290 287 284 281 282 284 280 282 286 287 287 286 287 284 283 284 288 290 290 290 289 291
309 309 309 311 311 311 311 311 312 312 312 311 310 310 293 282 298 296 295 296 293 293 290 291 287 288 284 283 281 284 284 285 286 285 286 284 283 283 284 286 287 288 289 290 290
309 309 310 310 311 311 311 312 312 311 311 309 309 304 292 289 295 293 294 292 294 292 289 291 291 288 286 282 286 285 281 282 283 284 284 286 281 281 286 287 286 288 289 291 291
309 311 310 311 311 311 311 310 311 310 308 309 307 297 288 299 295 293 293 292 294 294 293 293 293 289 286 286 284 280 279 275 281 284 285 283 277 283 287 285 286 287 288 290 291
310 310 310 311 311 311 309 309 309 308 307 307 294 290 282 295 289 292 291 290 292 293 295 297 292 285 284 277 272 273 268 275 278 284 283 282 279 283 287 287 286 287 288 289 290
310 310 310 311 311 309 306 307 302 299 296 294 290 282 285 284 289 291 291 293 290 290 288 287 282 277 275 273 267 271 275 277 277 280 282 280 280 284 286 286 286 286 286 288 290
310 310 310 311 310 307 297 289 284 283 288 282 282 282 284 289 291 289 291 290 289 286 278 282 273 269 276 278 278 277 277 276 279 282 280 279 280 282 285 285 282 281 281 283 284
310 309 310 311 309 304 293 288 286 286 280 287 286 285 287 288 283 287 292 285 280 275 280 273 268 279 281 281 279 276 275 275 279 281 281 280 279 281 283 281 281 280 281 282 283
309 309 310 310 306 297 291 289 293 291 280 282 284 284 285 286 282 284 289 285 277 272 278 276 278 282 281 279 275 273 274 273 276 280 280 277 273 277 280 282 281 282 282 283 282
308 309 310 307 297 293 289 294 292 289 269 277 279 282 285 285 281 289 290 286 282 273 280 276 281 281 279 276 278 271 280 279 277 273 266 277 266 274 275 278 279 279 280 281 282
308 310 306 304 293 290 292 293 291 286 266 278 279 287 286 283 283 285 290 286 280 275 274 274 278 278 274 279 280 276 281 278 276 269 274 268 269 271 275 273 275 277 279 280 281
309 310 306 300 294 293 292 289 286 273 265 270 278 279 277 282 282 284 285 287 285 280 279 275 281 280 280 282 281 282 276 273 273 268 261 265 271 268 271 273 275 277 278 279 281
310 305 299 298 292 294 291 284 274 268 273 270 273 278 276 276 280 280 280 279 274 268 265 272 273 279 281 277 280 276 266 259 261 260 261 263 267 267 275 276 276 276 277 279 280
305 300 295 293 292 293 288 281 268 265 265 276 277 277 274 277 277 276 278 274 279 274 264 265 269 271 280 278 273 270 267 260 257 260 265 266 262 270 278 279 278 278 278 279 279
302 295 292 292 293 293 286 276 274 269 276 276 276 270 267 276 273 271 272 273 278 273 265 267 267 278 279 281 277 271 265 275 269 260 259 264 266 273 278 276 276 277 277 277 279
296 293 290 293 293 290 282 279 276 278 279 278 271 272 266 266 271 267 270 276 279 278 275 271 268 271 275 280 278 272 275 266 265 260 257 261 257 264 271 272 273 274 275 276 279
296 289 291 293 294 284 279 276 276 279 281 278 274 268 272 267 270 264 269 277 278 278 279 273 271 269 276 268 268 271 269 267 267 271 266 264 263 274 273 273 273 274 275 276 278
292 285 292 292 282 279 277 277 279 279 281 280 279 276 272 272 269 263 268 272 279 275 273 277 271 267 268 276 279 275 272 273 269 265 270 270 267 277 276 275 274 274 275 276 278
287 284 292 291 281 278 277 277 279 279 279 279 276 279 277 271 268 274 274 280 281 277 274 278 266 262 268 273 276 272 277 276 274 275 269 267 269 278 277 275 274 273 275 276 277
288 282 283 285 285 282 276 276 276 281 280 280 279 280 278 271 275 269 276 280 282 280 284 282 274 266 264 266 267 269 274 275 272 264 268 270 271 275 274 273 274 274 275 275 276
290 285 285 278 278 279 280 276 275 275 280 281 277 278 276 270 271 271 276 278 279 280 278 274 261 269 271 271 269 271 272 273 266 269 268 272 270 275 275 274 274 275 275 275 275
286 284 284 282 282 281 281 277 276 278 278 277 275 277 278 272 276 273 276 277 274 276 276 276 262 265 262 273 275 271 276 274 273 269 268 269 271 278 279 277 274 274 274 274 274
290 289 289 284 281 279 279 279 278 279 280 281 279 278 277 278 278 278 279 278 277 275 273 269 262 257 260 268 267 266 270 271 270 269 271 266 272 277 277 277 274 274 274 274 274
Wind_Speed
11 13 13 15 14 12 14 14 16 15 15 15 16 16 16 16 9 7 10 7 11 18 11 8 7 11 5 5 5 2 4 2 4 3 3 3 7 3 4 6 4 4 4 8 19
12 12 13 15 15 15 16 15 15 15 15 15 15 15 15 12 2 7 8 13 17 17 9 10 10 9 5 5 4 5 3 4 3 2 3 4 4 5 5 9 5 14 10 9 8
10 10 12 15 15 14 15 15 15 16 15 15 16 16 16 5 3 5 10 15 15 13 6 4 6 4 5 4 5 3 3 0 3 3 4 5 6 4 4 7 13 8 13 17 11
8 10 13 14 14 14 15 16 15 14 14 14 13 14 12 2 3 4 12 13 11 8 7 7 7 6 4 4 4 5 3 3 6 4 6 5 5 7 13 20 7 10 14 15 17
9 11 13 14 15 15 15 14 14 13 12 13 13 12 5 6 2 6 12 10 6 5 5 4 6 3 3 4 7 1 3 6 9 16 13 11 15 13 20 17 16 15 14 14 16
9 10 13 14 15 15 14 14 13 12 11 11 9 6 3 6 2 7 7 5 5 4 4 5 3 1 1 2 0 4 9 12 11 11 9 9 8 1 3 3 9 8 11 12 12
9 11 12 13 15 15 15 14 13 11 9 8 7 3 7 4 2 7 7 2 3 3 3 0 1 5 1 4 3 4 8 7 4 2 6 4 8 9 14 11 11 13 12 12 13
8 11 11 13 15 16 17 16 12 6 4 5 6 3 3 2 1 6 7 5 5 2 2 2 2 3 3 4 6 6 3 7 3 10 5 5 13 4 11 7 14 13 11 15 20
7 9 11 14 15 17 17 10 5 3 4 5 4 3 1 5 6 6 2 5 6 4 4 3 4 3 5 4 5 7 5 12 10 2 4 6 18 6 11 20 24 21 19 17 19
6 8 11 14 15 18 14 5 6 4 5 2 2 6 6 6 5 7 3 4 3 4 4 8 6 4 5 6 3 10 11 9 17 4 8 18 27 22 18 18 18 13 14 16 15
5 8 10 12 14 16 7 4 7 5 9 4 3 1 4 9 2 4 4 3 4 8 6 5 7 0 4 5 5 7 14 22 22 19 17 18 20 20 19 14 5 7 10 13 13
4 8 9 10 10 14 4 6 2 2 1 1 2 2 2 2 4 4 6 5 7 4 7 8 0 4 4 6 6 9 16 19 15 4 14 18 22 26 7 5 4 6 10 14 17
2 5 8 7 5 6 4 3 2 2 2 3 1 2 4 4 3 6 6 2 5 5 5 2 3 6 3 8 4 5 13 7 18 22 18 12 8 4 2 3 11 15 14 14 14
3 3 7 8 5 0 3 3 3 1 7 6 3 2 3 3 2 3 4 2 2 0 5 6 5 5 6 6 1 11 6 17 21 12 4 6 7 2 5 6 17 19 17 17 17
4 3 8 9 3 3 2 4 1 4 5 4 7 3 5 5 5 1 5 5 2 2 7 7 4 5 5 6 3 12 20 19 15 5 5 7 2 4 6 11 22 23 22 20 19
5 6 7 4 3 2 3 2 4 9 6 5 4 7 6 6 6 7 6 5 0 2 2 7 3 3 5 12 5 10 12 6 3 1 3 4 2 3 5 12 20 22 20 21 21
6 10 6 2 2 3 3 4 7 6 3 7 4 5 1 5 5 7 5 7 5 8 8 9 4 3 2 7 5 9 7 6 10 7 5 3 3 7 4 15 14 19 21 21 18
16 8 8 4 1 2 3 6 4 3 6 2 3 2 2 6 3 7 3 3 4 3 3 5 10 3 6 2 6 5 5 4 5 5 12 7 4 6 4 13 15 15 17 17 16
15 2 3 4 3 2 5 4 9 8 4 2 2 4 5 2 0 5 2 1 2 4 4 2 8 5 3 2 3 8 5 4 6 2 4 5 7 5 12 19 18 18 16 19 19
5 2 3 6 4 3 5 5 2 2 2 3 4 3 2 4 4 5 2 3 2 3 3 3 8 3 7 2 4 5 2 6 4 7 7 7 6 6 23 25 20 20 17 16 15
5 2 1 3 1 5 4 6 4 4 1 3 4 3 3 2 2 1 3 4 2 3 4 4 3 9 3 1 5 6 6 3 1 3 4 7 6 4 19 18 20 17 16 16 15
2 2 3 2 4 2 1 2 2 2 1 2 2 3 5 5 2 2 5 7 3 5 3 4 4 7 10 4 3 4 2 3 2 6 4 5 6 5 17 14 15 15 14 14 13
4 3 2 2 3 3 2 3 3 4 3 4 4 3 2 5 1 4 3 3 4 4 4 4 3 5 9 5 2 2 4 1 4 3 3 6 6 8 16 14 15 15 14 14 14
4 3 1 1 2 4 5 5 4 1 3 3 2 3 3 1 2 3 3 2 1 3 2 3 3 8 7 8 2 6 9 3 3 2 7 5 17 15 17 20 18 17 15 14 13
1 3 3 4 5 4 4 5 4 4 3 4 2 8 6 4 0 5 4 3 1 2 2 4 4 2 7 11 4 7 7 6 3 5 2 12 13 15 10 16 18 13 15 15 15
5 5 1 4 3 7 5 6 11 5 9 6 6 6 8 6 8 8 5 4 4 2 2 1 3 1 6 6 5 5 5 6 2 3 5 6 3 10 13 7 12 15 18 17 16
1 2 3 8 5 3 7 7 9 8 7 2 9 5 9 12 5 3 2 1 3 5 3 2 3 4 7 5 5 6 8 5 4 4 4 1 5 6 13 12 14 13 12 12 13
Wind_Direction
19 10 2 2 358 351 352 2 0 356 353 350 350 354 356 355 11 25 41 353 4 353 348 324 9 0 36 46 23 79 69 223 250 195 285 356 8 291 298 268 275 266 255 271 296
4 359 356 355 353 345 341 351 349 346 342 344 344 349 350 349 45 46 354 9 3 5 10 14 353 353 49 17 21 69 111 237 254 315 290 294 283 291 315 286 280 284 265 270 310
358 355 349 344 345 341 336 337 340 338 337 339 341 345 345 358 67 344 343 359 6 13 8 21 0 27 50 12 0 335 210 144 274 284 7 288 289 228 279 261 246 266 287 296 302
9 354 345 343 345 339 334 338 336 337 335 335 340 342 343 21 62 314 338 350 358 12 23 25 14 33 48 22 341 348 298 339 291 314 321 292 273 277 226 255 278 256 268 286 292
357 351 352 348 341 339 337 337 337 339 337 337 338 345 18 51 56 321 340 341 354 3 33 38 41 39 27 337 331 195 299 310 291 293 282 275 264 259 265 269 273 268 265 263 273
357 351 344 341 341 338 333 330 332 336 337 338 344 356 71 74 291 345 351 352 4 9 6 42 35 255 100 302 321 307 284 290 284 291 277 282 274 282 278 294 287 261 262 261 259
350 349 342 346 343 338 334 327 330 334 343 359 8 32 55 159 12 345 10 319 355 332 338 282 153 65 298 332 327 280 307 310 303 272 280 327 273 231 261 280 269 276 282 275 262
354 350 350 350 343 338 330 323 324 332 360 11 18 27 75 347 255 11 339 338 357 31 286 314 124 100 44 314 343 348 340 351 270 311 275 100 281 275 258 301 295 297 280 283 284
343 350 348 349 345 339 334 335 14 7 359 8 32 41 34 338 7 318 350 316 313 332 20 78 64 78 16 22 10 9 297 298 310 223 270 194 285 279 307 301 289 291 294 288 288
341 346 352 349 346 343 337 350 20 48 6 43 55 41 13 312 305 325 304 311 338 341 25 33 43 54 29 45 313 297 311 276 287 288 271 284 274 281 280 267 278 308 328 316 290
339 342 350 351 349 351 4 17 18 353 40 105 283 236 303 301 283 317 325 343 1 51 27 10 49 319 252 195 238 268 278 288 287 283 286 280 281 288 289 284 29 346 335 336 334
341 344 345 352 359 6 54 66 99 221 39 67 297 294 268 343 325 314 2 41 55 26 343 17 218 251 277 269 249 255 283 292 288 274 304 293 295 290 328 95 77 352 339 339 329
310 347 340 350 16 39 62 62 339 150 83 334 358 353 309 11 316 291 16 62 93 35 36 280 285 316 279 299 270 266 285 281 287 313 289 289 296 99 360 82 0 1 347 335 330
260 21 353 346 50 25 30 342 348 77 72 299 342 346 341 351 306 285 338 44 36 345 343 250 284 319 315 289 253 312 254 297 297 321 306 52 288 311 335 346 0 351 342 334 332
203 68 67 55 145 52 320 340 25 60 24 289 309 314 336 61 302 20 332 41 340 291 77 259 329 2 322 274 30 256 306 304 295 241 296 328 264 278 4 346 344 340 337 334 332
172 127 117 64 69 3 328 48 46 43 269 334 312 350 17 7 355 310 9 35 282 344 222 253 306 234 240 298 266 321 311 353 14 104 16 262 360 350 15 336 330 333 330 329 329
118 96 75 59 65 341 344 41 29 115 348 304 331 11 97 323 346 9 16 16 36 21 9 328 278 296 273 314 335 8 8 340 2 4 251 284 320 241 194 358 337 323 325 326 325
119 89 60 57 84 39 43 44 68 228 232 332 347 335 69 359 11 339 32 46 56 85 68 31 332 14 341 95 273 339 90 119 299 317 302 355 263 278 193 352 337 328 326 321 323
115 73 53 359 2 58 72 63 208 202 173 163 8 51 318 9 169 16 2 190 193 145 133 6 277 300 207 301 105 306 26 216 263 184 10 284 293 312 351 335 338 341 334 331 331
95 93 76 309 314 79 74 244 250 267 128 114 170 141 214 294 2 53 354 247 124 164 144 208 298 253 290 356 342 136 304 356 359 330 309 292 290 266 341 346 341 340 339 332 328
88 69 48 303 308 59 164 225 237 232 209 158 186 168 212 217 180 261 251 275 187 148 133 129 135 288 355 353 204 349 353 343 159 263 303 303 290 293 355 340 333 335 334 332 337
102 147 305 271 77 95 202 223 235 186 259 213 135 144 179 168 201 251 239 218 203 159 180 194 182 276 243 262 147 146 253 255 288 300 257 258 289 335 2 337 333 333 333 335 346
97 106 306 309 172 197 114 275 243 159 221 193 198 211 169 178 43 211 236 251 201 161 169 159 312 332 345 5 20 47 298 29 272 279 273 318 306 358 348 348 348 343 345 348 350
128 124 46 19 334 143 143 232 227 206 213 193 163 140 159 215 211 262 256 265 249 182 133 187 213 177 204 218 197 316 310 341 71 43 309 278 315 334 352 352 353 351 353 354 357
157 139 165 172 230 154 174 165 149 209 225 180 269 218 181 178 130 228 234 286 119 350 87 115 212 280 250 263 217 239 257 303 82 242 310 313 323 343 357 352 346 350 356 1 4
137 144 201 128 133 136 190 218 197 173 158 213 218 209 186 185 187 196 162 218 207 327 114 72 265 78 293 321 259 266 236 267 138 279 256 288 299 336 333 348 3 351 349 359 2
153 52 136 150 148 167 201 212 206 140 215 177 202 143 204 239 196 159 186 128 166 149 147 93 118 55 273 342 336 325 221 213 221 191 209 349 252 315 329 349 358 354 356 354 359